Theta_e
280 282 281 281 279 281 281 284 282 282 283 291 291 287 288 290 290 288 286 287 287 285 286 285 285 284 287 289 289 290 293 291 291 293 294 294 294 294 295 296 296 297 299 298
278 279 281 279 282 280 281 278 278 279 282 293 295 293 288 291 290 291 291 288 287 286 285 285 283 283 288 286 288 291 292 289 293 293 293 293 294 294 295 294 294 295 295 295
274 277 280 277 279 281 281 282 284 281 289 292 291 293 293 293 292 291 292 292 288 288 286 285 284 286 287 288 288 291 289 288 291 291 291 292 293 293 293 294 294 294 294 295
278 278 275 282 285 286 286 287 287 287 289 293 293 294 294 294 294 293 294 293 293 291 288 285 284 284 288 288 288 290 288 291 290 290 289 289 290 292 292 293 293 293 293 294
279 276 282 286 284 284 283 286 289 288 291 292 293 291 293 295 295 296 295 294 293 292 289 287 285 286 288 286 286 289 288 290 289 289 289 289 290 289 290 291 290 290 290 292
281 278 274 284 289 289 289 282 291 291 291 291 291 287 293 293 293 293 292 290 290 288 287 287 285 288 287 286 287 287 287 288 288 289 289 289 288 287 287 288 287 287 287 287
282 280 281 288 288 290 281 285 292 292 293 291 290 294 292 291 289 289 288 289 288 287 287 287 286 287 287 286 286 286 286 288 288 288 288 288 287 287 287 287 287 286 285 284
282 279 277 289 287 286 292 293 293 293 293 293 294 292 289 289 288 287 287 287 287 286 285 285 286 288 286 286 285 285 285 286 286 286 287 287 287 286 286 287 286 283 283 282
282 283 290 289 290 293 293 292 292 292 293 295 293 290 289 288 287 287 287 286 285 285 283 283 285 287 286 283 285 285 287 286 285 285 285 286 287 286 286 286 287 286 284 281
285 287 289 290 292 292 294 294 293 293 293 295 293 290 288 287 286 286 285 284 282 283 282 281 281 283 285 284 285 286 286 285 284 284 283 283 285 285 286 285 284 283 281 280
284 286 287 291 292 294 295 294 293 292 294 295 293 291 289 287 285 285 284 282 283 284 283 282 281 281 283 284 286 285 284 282 282 281 282 282 281 282 282 282 282 285 282 281
284 289 291 293 295 296 293 294 295 291 290 290 291 290 287 286 286 285 283 282 282 282 282 281 282 281 283 284 286 284 282 282 283 282 281 281 280 280 287 287 288 287 287 284
289 290 291 291 288 290 292 294 292 290 291 291 289 289 287 286 284 284 283 284 283 283 282 281 282 281 282 284 286 285 285 283 284 283 283 281 280 280 280 281 288 288 287 287
287 287 286 286 291 291 287 288 287 285 286 288 289 285 285 283 282 285 284 284 284 283 282 282 282 281 282 284 285 284 284 282 283 283 284 282 281 280 280 279 277 274 284 286
287 288 289 289 285 288 284 283 285 286 286 286 286 287 287 285 284 286 284 283 282 282 281 281 282 281 281 284 284 283 283 283 283 281 278 281 281 280 278 277 278 280 280 284
286 286 287 285 287 288 284 283 284 287 285 287 286 287 288 286 284 281 279 282 281 281 281 282 282 280 281 282 283 282 282 281 281 281 280 278 280 280 279 278 278 281 283 284
282 283 281 280 287 288 287 288 289 289 287 287 287 285 283 281 279 278 277 274 280 278 277 280 280 278 281 282 283 283 283 282 282 282 282 281 280 280 279 279 281 282 283 284
285 286 286 287 288 288 287 287 287 287 287 288 286 283 281 280 282 278 276 274 276 274 271 273 276 277 279 281 282 283 283 282 282 282 280 280 279 281 281 282 283 283 282 282
283 286 287 286 288 288 288 287 286 287 286 285 283 284 283 283 281 277 276 276 277 275 274 276 279 279 279 280 282 283 282 281 281 281 281 280 281 283 283 282 280 279 278 276
271 273 274 283 280 284 288 285 285 282 280 282 282 279 279 277 277 276 277 276 272 276 275 277 280 281 280 281 283 283 283 283 282 282 282 283 284 281 280 278 277 276 276 275
275 268 266 268 273 269 274 276 279 277 278 279 280 280 277 274 276 275 273 273 270 273 275 278 281 281 281 284 284 283 283 283 283 283 283 281 278 278 277 276 276 275 274 274
273 273 272 263 265 274 273 272 274 274 276 275 277 275 274 272 272 271 271 273 270 274 275 277 279 283 284 285 285 284 284 283 282 281 279 278 277 276 275 275 274 274 273 273
269 270 271 267 270 272 271 274 276 275 274 274 275 275 274 273 274 273 270 270 272 273 274 275 278 281 282 283 282 282 281 280 280 279 278 277 276 275 274 273 273 273 272 271
268 268 268 269 270 270 268 267 267 270 273 273 273 273 271 270 269 271 271 272 273 273 273 275 277 278 278 278 278 278 277 277 276 276 276 275 275 274 273 272 271 270 270 269
265 265 266 266 265 264 265 266 266 266 265 265 266 267 267 268 269 270 271 271 272 272 272 274 274 274 274 274 274 274 274 274 274 273 273 273 272 271 270 269 269 269 269 268
263 263 263 264 264 265 265 265 264 264 264 263 263 265 266 267 267 267 267 268 268 268 268 269 270 270 271 271 271 271 271 271 271 271 270 270 270 269 268 268 268 267 267 267
265 265 264 263 264 264 264 264 264 262 263 263 262 264 264 265 265 265 265 265 266 266 267 267 268 268 268 268 268 268 268 268 268 268 268 268 268 267 267 266 266 265 265 265
Wind_Speed
5 5 3 5 6 11 17 17 9 6 9 7 9 11 9 7 5 7 7 7 8 8 8 8 8 7 6 6 5 5 5 4 4 2 2 3 4 5 5 7 7 8 8 9
5 3 3 6 9 8 12 3 6 1 7 10 8 6 5 9 9 9 10 10 8 7 8 11 10 9 7 7 7 5 4 5 3 4 3 4 5 6 7 8 9 9 9 8
7 1 2 10 11 11 7 6 13 14 24 4 5 9 9 10 10 11 10 9 11 13 12 11 12 12 10 8 7 6 4 5 3 3 5 5 4 7 8 9 8 10 10 9
4 2 9 5 2 5 18 13 19 7 10 14 7 8 7 9 10 12 9 10 10 10 11 10 9 8 8 7 9 7 5 5 4 3 5 5 6 8 8 7 8 8 8 9
5 5 12 15 4 8 10 11 18 22 20 9 4 0 8 10 10 11 9 8 8 10 12 12 13 11 12 7 8 9 6 5 5 5 6 6 8 6 5 8 8 8 7 9
3 5 11 1 3 6 6 8 7 19 21 17 6 5 14 8 6 7 8 7 9 11 11 14 12 13 12 10 9 9 8 6 5 5 6 7 7 6 4 7 8 7 10 9
12 8 10 8 4 6 7 6 5 15 18 10 11 15 2 7 6 6 6 8 9 12 14 14 14 14 13 11 10 7 7 6 6 5 6 6 6 4 5 8 9 9 10 8
6 7 17 7 4 11 9 8 5 2 6 16 15 6 6 8 8 9 9 9 9 11 12 12 14 14 13 13 8 8 9 7 5 5 4 5 7 5 5 6 9 6 8 7
10 9 4 5 4 5 2 5 3 1 2 6 8 8 8 8 9 8 8 9 7 10 12 10 12 12 15 9 10 10 10 8 5 5 4 4 6 6 5 4 5 5 5 5
2 8 9 9 7 5 6 8 2 3 2 5 5 6 8 7 7 8 7 8 6 12 12 12 9 7 8 13 12 12 13 10 9 8 5 4 4 3 3 4 4 5 5 5
8 7 5 9 8 8 12 6 6 2 2 4 4 7 7 8 8 8 9 7 9 11 12 13 12 10 10 13 13 11 10 9 7 6 6 6 4 4 3 1 2 5 3 4
11 5 10 14 12 13 8 9 7 3 4 1 8 9 6 7 6 7 9 8 8 8 10 11 12 11 11 12 13 13 10 7 7 7 8 7 7 6 9 8 9 9 10 6
15 5 5 8 6 4 5 7 5 6 5 6 6 6 6 6 5 6 7 10 12 13 11 13 12 12 12 12 14 14 13 10 8 9 8 8 8 8 9 5 9 11 13 13
8 5 7 3 7 7 4 5 4 3 6 8 9 4 5 4 4 7 11 10 9 11 12 13 13 13 12 13 12 12 12 12 9 5 8 8 7 7 8 9 6 2 5 9
12 9 11 11 6 9 3 2 3 5 4 5 2 4 7 9 7 9 6 8 8 8 10 12 13 11 11 12 12 13 10 9 9 7 5 6 6 6 7 8 6 6 4 7
12 10 11 9 10 11 5 4 5 8 4 6 7 9 13 8 8 6 2 9 14 13 11 12 13 12 13 12 11 9 7 11 9 7 6 5 5 6 7 6 8 8 7 8
15 16 5 7 13 18 14 11 11 8 7 8 12 4 8 8 10 8 5 2 4 7 6 9 11 12 12 12 12 8 8 8 10 7 7 7 6 7 7 7 7 7 7 8
14 13 11 13 15 12 9 10 10 9 9 12 5 7 7 10 14 12 8 7 7 7 3 4 8 8 11 12 11 9 8 9 9 8 7 7 7 7 8 9 8 9 8 10
13 18 17 13 16 13 10 8 9 10 7 9 11 14 14 9 7 12 11 10 8 11 7 5 11 9 9 10 11 9 9 10 9 9 8 9 9 8 9 9 9 9 9 8
11 7 7 11 7 12 15 7 6 7 6 8 7 9 10 9 11 12 11 10 4 3 11 8 9 9 10 11 11 9 10 12 11 10 9 9 10 10 9 11 11 10 9 8
8 7 6 7 6 5 6 4 7 9 9 9 12 13 13 10 11 11 11 8 3 3 7 8 7 7 8 10 9 9 11 11 11 11 12 10 11 11 10 10 10 10 9 9
6 7 7 5 4 1 2 3 4 5 8 6 7 11 13 12 11 7 4 6 6 6 4 4 4 11 10 13 8 9 10 11 11 10 11 11 11 11 11 10 10 10 10 10
5 6 5 3 4 4 4 5 3 5 7 8 10 11 11 9 9 11 9 4 6 6 5 4 7 12 14 8 8 8 10 11 11 11 10 10 10 11 11 11 11 11 11 11
6 5 5 4 2 4 7 5 8 8 7 7 7 8 10 10 6 6 10 12 12 10 6 6 9 13 12 8 9 9 10 10 10 10 11 13 10 11 11 12 11 10 11 13
6 6 6 5 4 5 7 6 9 9 9 10 10 8 7 5 5 7 10 9 15 12 9 11 12 12 8 8 8 9 10 10 10 11 11 11 11 11 11 11 11 12 11 11
8 6 5 6 3 4 5 6 6 5 6 8 8 7 7 7 9 8 8 10 11 11 9 8 8 8 8 8 9 10 11 11 11 11 12 11 12 11 11 12 12 11 10 10
5 6 3 3 4 4 6 6 6 6 6 7 9 6 7 7 8 9 10 9 9 10 9 8 8 10 10 10 11 11 10 10 11 11 11 11 10 10 11 11 11 11 10 11
Wind_Direction
252 265 232 213 215 200 210 216 192 227 205 236 219 213 215 218 191 175 196 197 191 184 175 168 159 157 153 155 150 158 128 119 121 80 20 19 39 44 29 39 39 37 51 55
282 292 258 261 243 195 228 296 306 283 274 223 243 145 199 219 206 215 214 214 202 182 173 169 165 160 156 154 151 160 134 128 138 96 54 45 48 54 55 60 57 62 62 67
266 327 322 285 202 196 194 207 204 227 237 143 249 240 202 211 204 214 206 198 197 189 185 172 168 160 161 159 140 143 141 135 106 100 100 70 65 73 64 62 69 69 65 69
259 2 231 237 192 223 209 217 207 217 238 228 216 223 228 212 190 219 208 197 198 176 171 163 154 140 137 148 140 136 152 132 123 110 102 97 73 71 66 61 65 70 64 69
205 214 296 289 207 160 178 248 209 217 236 226 175 34 270 208 208 211 191 191 185 162 157 154 156 150 144 149 147 137 158 148 137 132 113 98 92 80 59 78 69 63 53 67
176 218 225 232 199 186 145 263 227 203 225 217 149 218 250 173 196 175 164 161 150 137 140 148 151 147 146 153 159 155 159 155 141 133 117 110 104 101 84 90 86 80 71 57
217 245 267 235 161 142 151 250 231 191 217 156 200 221 182 138 128 135 142 142 128 139 151 159 149 149 152 152 174 155 138 138 133 125 112 108 103 93 99 96 90 79 78 53
208 210 257 186 100 210 236 257 330 319 214 206 215 155 168 156 151 153 149 139 143 141 145 153 151 154 154 162 165 143 128 121 111 111 114 110 104 92 84 95 98 89 91 76
190 218 267 235 215 253 280 257 236 267 318 223 192 203 179 173 166 160 163 149 143 144 139 156 156 162 155 155 149 142 131 125 107 93 93 87 110 107 102 92 114 111 103 101
157 239 241 263 273 254 246 261 304 259 234 208 237 190 186 168 164 159 165 161 145 141 154 163 151 144 155 146 146 152 145 144 141 135 113 83 86 82 110 116 111 119 130 122
258 252 316 293 273 268 297 297 277 229 237 260 216 210 208 176 180 169 159 149 159 162 162 169 156 148 155 147 148 149 146 142 138 120 118 107 70 112 101 39 121 139 132 129
238 220 224 250 257 265 263 272 299 217 283 140 216 204 173 213 172 167 162 152 154 160 159 164 156 151 157 153 151 146 141 145 151 143 138 131 114 89 65 76 113 139 145 139
266 284 249 264 275 270 263 282 250 207 252 273 265 214 183 197 173 160 150 167 170 173 164 162 158 160 164 162 152 158 153 155 155 154 153 152 143 140 126 45 78 103 113 115
285 322 311 262 265 293 267 299 280 213 187 196 205 215 141 175 101 181 181 181 161 160 162 165 163 169 167 160 158 156 150 149 151 172 162 157 166 153 146 150 144 80 99 124
262 244 243 266 298 282 269 324 268 231 251 270 232 184 156 164 177 217 159 143 137 157 161 159 168 167 164 160 161 158 158 161 163 152 147 151 148 146 134 121 115 114 104 96
257 251 258 236 261 275 226 251 240 263 208 243 204 196 213 138 129 146 139 158 160 182 174 172 176 162 161 160 158 155 157 148 149 149 143 130 131 136 131 127 128 132 137 137
234 241 241 272 252 259 241 243 238 231 217 224 237 175 136 141 132 148 162 141 130 128 157 170 167 156 157 158 164 161 152 147 143 141 154 148 145 147 138 139 137 137 138 144
224 236 227 240 251 243 243 225 231 234 212 224 177 148 143 171 180 159 159 119 115 103 87 135 137 152 158 157 156 153 158 150 148 151 143 139 138 144 141 138 138 133 117 120
245 244 245 228 239 240 237 226 219 230 207 183 165 188 185 180 165 148 146 136 162 155 185 151 144 149 160 162 155 149 154 146 142 139 147 140 137 140 134 132 127 123 121 119
283 281 260 239 229 230 252 225 213 210 194 183 162 147 161 152 150 156 158 153 150 269 141 157 157 160 155 166 164 153 159 151 148 144 147 150 145 136 130 130 128 127 124 124
281 289 271 260 253 268 255 183 186 197 185 184 178 178 164 142 145 145 138 145 175 172 148 144 168 153 146 159 163 161 157 151 148 146 147 139 131 128 131 129 134 133 126 123
306 281 264 238 201 160 337 165 150 141 153 150 141 138 136 137 130 102 47 140 155 165 139 129 162 149 146 153 155 159 152 144 136 137 138 137 138 138 134 134 131 127 126 123
325 314 296 258 161 132 52 41 88 137 138 155 152 155 153 150 152 149 141 147 141 131 115 130 126 119 124 129 131 137 134 134 136 135 134 134 135 134 131 133 131 129 125 122
338 359 355 351 30 97 89 47 59 50 85 95 99 117 138 135 91 87 113 123 121 111 108 116 116 115 113 117 123 127 121 119 119 117 118 125 124 123 125 129 124 122 118 118
1 8 15 17 53 73 85 91 87 80 77 72 66 59 58 45 101 132 115 122 115 110 109 100 100 99 100 112 121 116 113 116 118 120 123 121 121 121 121 122 123 124 121 124
15 20 16 12 6 67 79 82 85 79 96 86 62 59 67 79 88 92 97 100 96 99 91 90 89 90 95 101 102 103 106 111 112 114 117 117 120 120 121 122 121 118 122 123
21 18 345 0 20 54 66 73 87 84 79 91 91 71 80 82 89 96 96 94 92 89 88 87 89 96 100 96 93 91 93 97 103 107 106 108 112 116 118 118 116 117 121 121